TimeAKDT,TemperatureF,Dew PointF,Humidity,Sea Level PressureIn,VisibilityMPH,Wind Direction,Wind SpeedMPH,Gust SpeedMPH,PrecipitationIn,Events,Conditions,WindDirDegrees,DateUTC
12:16 AM,48.2,35.6,62,29.69,10.0,East,15.0,-,N/A,,Mostly Cloudy,90,2013-10-18 08:16:00
12:36 AM,50.0,35.6,58,29.68,10.0,East,20.7,28.8,N/A,,Mostly Cloudy,100,2013-10-18 08:36:00
12:56 AM,50.0,35.6,58,29.68,10.0,East,15.0,24.2,N/A,,Overcast,90,2013-10-18 08:56:00
1:16 AM,48.2,35.6,62,29.67,10.0,East,18.4,23.0,N/A,,Mostly Cloudy,90,2013-10-18 09:16:00
1:36 AM,48.2,35.6,62,29.66,10.0,East,17.3,23.0,N/A,,Scattered Clouds,90,2013-10-18 09:36:00
1:56 AM,48.2,35.6,62,29.66,10.0,East,12.7,17.3,N/A,,Mostly Cloudy,80,2013-10-18 09:56:00
2:16 AM,48.2,37.4,66,29.65,10.0,East,10.4,19.6,N/A,,Overcast,80,2013-10-18 10:16:00
2:36 AM,48.2,37.4,66,29.64,10.0,East,9.2,-,N/A,,Overcast,90,2013-10-18 10:36:00
2:56 AM,48.2,37.4,66,29.63,10.0,East,13.8,-,N/A,,Overcast,90,2013-10-18 10:56:00
3:16 AM,48.2,39.2,71,29.63,10.0,East,10.4,-,N/A,,Overcast,90,2013-10-18 11:16:00
3:36 AM,46.4,39.2,76,29.63,10.0,Calm,Calm,-,N/A,,Overcast,0,2013-10-18 11:36:00
3:56 AM,44.6,41.0,87,29.63,10.0,Calm,Calm,-,0.01,,Overcast,0,2013-10-18 11:56:00
4:16 AM,44.6,41.0,87,29.63,10.0,Calm,Calm,-,N/A,,Overcast,0,2013-10-18 12:16:00
4:36 AM,44.6,41.0,87,29.63,10.0,Calm,Calm,-,N/A,,Overcast,0,2013-10-18 12:36:00
4:56 AM,44.6,41.0,87,29.63,10.0,Calm,Calm,-,N/A,,Overcast,0,2013-10-18 12:56:00
5:16 AM,44.6,39.2,81,29.63,10.0,Calm,Calm,-,N/A,,Mostly Cloudy,0,2013-10-18 13:16:00
5:36 AM,42.8,39.2,87,29.63,10.0,East,3.5,-,N/A,,Overcast,100,2013-10-18 13:36:00
5:56 AM,42.8,39.2,87,29.64,10.0,Calm,Calm,-,N/A,,Overcast,0,2013-10-18 13:56:00
6:16 AM,44.6,39.2,81,29.65,10.0,South,3.5,-,N/A,,Mostly Cloudy,180,2013-10-18 14:16:00
6:36 AM,44.6,39.2,81,29.67,10.0,SSW,6.9,-,N/A,,Scattered Clouds,210,2013-10-18 14:36:00
6:56 AM,46.4,41.0,81,29.68,10.0,WSW,10.4,-,N/A,,Scattered Clouds,250,2013-10-18 14:56:00
7:16 AM,46.4,42.8,87,29.68,10.0,WSW,9.2,-,N/A,,Mostly Cloudy,250,2013-10-18 15:16:00
7:36 AM,44.6,39.2,81,29.69,10.0,WSW,11.5,16.1,N/A,,Mostly Cloudy,240,2013-10-18 15:36:00
7:56 AM,44.6,39.2,81,29.70,10.0,SSW,11.5,23.0,N/A,,Mostly Cloudy,210,2013-10-18 15:56:00
8:16 AM,44.6,37.4,76,29.71,10.0,SW,11.5,-,N/A,,Mostly Cloudy,220,2013-10-18 16:16:00
8:36 AM,42.8,37.4,81,29.71,10.0,WSW,15.0,-,N/A,,Clear,240,2013-10-18 16:36:00
8:56 AM,42.8,35.6,76,29.72,10.0,WSW,13.8,-,N/A,,Clear,240,2013-10-18 16:56:00
9:16 AM,42.8,35.6,76,29.73,10.0,WSW,11.5,-,N/A,,Clear,240,2013-10-18 17:16:00
9:36 AM,42.8,35.6,76,29.74,10.0,WSW,10.4,-,N/A,,Partly Cloudy,240,2013-10-18 17:36:00
9:56 AM,42.8,35.6,76,29.74,10.0,WSW,8.1,-,N/A,,Mostly Cloudy,240,2013-10-18 17:56:00
10:16 AM,44.6,35.6,71,29.74,10.0,South,5.8,-,N/A,,Overcast,190,2013-10-18 18:16:00
10:36 AM,44.6,37.4,76,29.74,10.0,South,4.6,-,N/A,,Overcast,190,2013-10-18 18:36:00
10:56 AM,44.6,37.4,76,29.75,10.0,Calm,Calm,-,N/A,,Overcast,0,2013-10-18 18:56:00
11:16 AM,46.4,37.4,71,29.75,10.0,East,4.6,-,N/A,,Scattered Clouds,80,2013-10-18 19:16:00
11:36 AM,48.2,37.4,66,29.75,10.0,East,6.9,-,N/A,,Scattered Clouds,100,2013-10-18 19:36:00
11:56 AM,46.4,37.4,71,29.75,10.0,East,6.9,-,N/A,,Overcast,100,2013-10-18 19:56:00
12:16 PM,48.2,37.4,66,29.75,10.0,East,4.6,-,N/A,,Overcast,90,2013-10-18 20:16:00
12:36 PM,48.2,37.4,66,29.75,10.0,East,5.8,-,N/A,,Overcast,80,2013-10-18 20:36:00
12:56 PM,48.2,37.4,66,29.76,10.0,East,4.6,-,N/A,,Overcast,100,2013-10-18 20:56:00
1:16 PM,48.2,37.4,66,29.76,10.0,Calm,Calm,-,N/A,,Overcast,0,2013-10-18 21:16:00
1:36 PM,48.2,37.4,66,29.76,10.0,Calm,Calm,-,N/A,,Overcast,0,2013-10-18 21:36:00
1:56 PM,50.0,33.8,54,29.75,10.0,SSE,3.5,-,N/A,,Overcast,150,2013-10-18 21:56:00
2:16 PM,48.2,35.6,62,29.75,10.0,East,3.5,-,N/A,,Overcast,100,2013-10-18 22:16:00
2:36 PM,48.2,37.4,66,29.75,10.0,Calm,Calm,-,N/A,,Overcast,0,2013-10-18 22:36:00
2:56 PM,48.2,37.4,66,29.74,10.0,ENE,3.5,-,N/A,,Overcast,70,2013-10-18 22:56:00
3:16 PM,48.2,35.6,62,29.73,10.0,ENE,3.5,-,N/A,,Overcast,60,2013-10-18 23:16:00
3:36 PM,50.0,35.6,58,29.72,10.0,ENE,4.6,-,N/A,,Overcast,60,2013-10-18 23:36:00
3:56 PM,50.0,35.6,58,29.72,10.0,Calm,Calm,-,N/A,,Overcast,0,2013-10-18 23:56:00
4:16 PM,50.0,35.6,58,29.71,10.0,Calm,Calm,-,N/A,,Overcast,0,2013-10-19 00:16:00
4:36 PM,50.0,35.6,58,29.71,10.0,East,5.8,-,N/A,,Overcast,80,2013-10-19 00:36:00
4:56 PM,48.2,35.6,62,29.70,10.0,NE,4.6,-,N/A,,Overcast,40,2013-10-19 00:56:00
5:16 PM,48.2,35.6,62,29.70,10.0,NNE,5.8,-,N/A,,Overcast,30,2013-10-19 01:16:00
5:36 PM,48.2,35.6,62,29.69,10.0,Calm,Calm,-,N/A,,Overcast,0,2013-10-19 01:36:00
5:56 PM,48.2,37.4,66,29.68,10.0,ENE,6.9,-,N/A,,Overcast,60,2013-10-19 01:56:00
6:16 PM,48.2,35.6,62,29.67,10.0,NE,5.8,-,N/A,,Overcast,50,2013-10-19 02:16:00
6:36 PM,48.2,35.6,62,29.66,10.0,NE,6.9,-,N/A,,Overcast,50,2013-10-19 02:36:00
6:56 PM,46.4,35.6,66,29.65,10.0,ENE,4.6,-,N/A,,Overcast,70,2013-10-19 02:56:00
7:16 PM,46.4,35.6,66,29.65,10.0,Calm,Calm,-,N/A,,Overcast,0,2013-10-19 03:16:00
7:36 PM,46.4,35.6,66,29.65,10.0,Calm,Calm,-,N/A,,Overcast,0,2013-10-19 03:36:00
7:56 PM,46.4,33.8,62,29.64,10.0,Calm,Calm,-,N/A,,Overcast,0,2013-10-19 03:56:00
8:16 PM,44.6,35.6,71,29.63,10.0,NE,3.5,-,N/A,,Mostly Cloudy,50,2013-10-19 04:16:00
8:36 PM,44.6,35.6,71,29.63,10.0,Calm,Calm,-,N/A,,Mostly Cloudy,0,2013-10-19 04:36:00
8:56 PM,44.6,35.6,71,29.62,10.0,Calm,Calm,-,N/A,,Scattered Clouds,0,2013-10-19 04:56:00
9:16 PM,42.8,35.6,76,29.62,10.0,Calm,Calm,-,N/A,,Mostly Cloudy,0,2013-10-19 05:16:00
9:36 PM,42.8,35.6,76,29.61,10.0,Calm,Calm,-,N/A,,Mostly Cloudy,0,2013-10-19 05:36:00
9:56 PM,42.8,35.6,76,29.60,10.0,East,3.5,-,N/A,,Mostly Cloudy,100,2013-10-19 05:56:00
10:16 PM,44.6,35.6,71,29.59,10.0,East,4.6,-,N/A,,Overcast,100,2013-10-19 06:16:00
10:36 PM,46.4,35.6,66,29.58,10.0,ENE,5.8,-,N/A,,Mostly Cloudy,70,2013-10-19 06:36:00
10:56 PM,46.4,33.8,62,29.57,10.0,NE,4.6,-,N/A,,Scattered Clouds,50,2013-10-19 06:56:00
11:16 PM,44.6,33.8,66,29.55,10.0,NE,4.6,-,N/A,,Clear,50,2013-10-19 07:16:00
11:36 PM,46.4,33.8,62,29.54,10.0,East,8.1,-,N/A,,Scattered Clouds,100,2013-10-19 07:36:00
11:56 PM,46.4,33.8,62,29.53,10.0,Calm,Calm,-,N/A,,Scattered Clouds,0,2013-10-19 07:56:00